Simultaneous Nadir Overpasses (SNOs) Predictions

Prediction of SNOs between GOES-15 and METOP-A Satellite Orbit:

Table of predicted SNOs for the next 14.0 days since TLE Epoch: 7/18/2015
Index Date Time (GOES-15) GOES-15 Lat,Lon METOP-A Lat,Lon Distance(km) Time Diff (sec)
1 07/18/2015 06:26:34 0.07,-135.12 0.14,-134.67 50.48 80
2 07/19/2015 18:48:05 -0.04,-135.10 0.88,-139.23 470.59 80
3 07/20/2015 18:24:45 -0.06,-135.11 -0.23,-134.24 98.34 80
4 07/22/2015 06:46:26 0.03,-135.14 -0.81,-138.84 422.09 80
5 07/23/2015 06:23:07 0.06,-135.14 0.36,-133.86 146.71 80
6 07/24/2015 18:44:37 -0.03,-135.12 0.72,-138.41 375.04 80
7 07/25/2015 18:21:18 -0.05,-135.12 -0.39,-133.42 193.09 80
8 07/27/2015 06:42:58 0.02,-135.13 -0.64,-138.02 328.72 80
9 07/28/2015 06:19:39
